Regional Weather Roundup
Issued by NWS Goodland, KS

Home | Current Version | Previous Version | Graphics & Text | Print | Product List | Glossary On
Versions: 1 2 3 4 5 6 7 8 9 10 11 12 13 14 15 16 17 18 19 20 21 22 23 24 25 26 27 28 29 30 31 32 33 34 35 36 37 38 39 40 41 42 43 44 45 46 47 48 49 50
000
ASUS43 KGLD 281959
RWRGLD

GOODLAND FORECAST AREA HOURLY WEATHER ROUNDUP
NATIONAL WEATHER SERVICE GOODLAND KS
100 PM MST SUN DEC 28 2014

...OFFICIAL OBSERVATIONS...

CITY           SKY/WX    TMP DP  RH WIND       PRES   REMARKS
GOODLAND KS    CLOUDY    32  23  69 SE5       29.92F
HILL CITY KS   PTSUNNY   34  22  61 S5        30.02F
IMPERIAL NEB   CLOUDY    27  14  58 SE10      29.94F WCI  17
MCCOOK NEB     CLOUDY    25  15  66 CALM      29.99F
AKRON CO       CLOUDY    21  15  78 NW7       29.87F
BURLINGTON CO  PTSUNNY   31  20  63 SE10      29.87F
LIMON CO       SUNNY     34  16  47 NW5       29.84F
$$

...UNOFFICIAL OBSERVATIONS...

CITY           SKY/WX    TMP DP  RH WIND       PRES   REMARKS
COLBY KS       CLOUDY    32  27  80 SE6       29.95F
NORTON KS      PTSUNNY   30  18  59 SE3       30.00F
SHARON SPRINGS   N/A     35  26  69 CALM        N/A
KIT CARSON CO    N/A     32  18  56 MISG        N/A
YUMA CO          N/A     30  18  61 CALM        N/A
$$


USA.gov is the U.S. government's official web portal to all federal, state and local government web resources and services.